This is the latest recevied weather packets stored in our database for station/object WD4IXD. If no packets are shown the sender has not sent any weather packets the latest 10 day(s).
| Time | Temp. | Humidity | Pressure | Rain* | Wind** | Luminosity | Snow |
|---|---|---|---|---|---|---|---|
| 1778095515 | 2.78° C | 90% | 1020.4 hPa | 3.05 mm | - | 520 W/m² | - |
| 1778095203 | 2.22° C | 91% | 1020.4 hPa | 2.79 mm | - | 555 W/m² | - |
| 1778094915 | 2.22° C | 91% | 1020.5 hPa | 2.79 mm | - | 598 W/m² | - |
| 1778094615 | 2.22° C | 91% | 1020.5 hPa | 2.54 mm | - | 482 W/m² | - |
| 1778094315 | 2.78° C | 92% | 1020.6 hPa | 2.54 mm | - | 526 W/m² | - |
| 1778094015 | 2.78° C | 93% | 1020.5 hPa | 2.03 mm | - | 793 W/m² | - |
| 1778093704 | 2.22° C | 94% | 1020.5 hPa | 2.03 mm | - | 675 W/m² | - |
| 1778093415 | 2.22° C | 93% | 1020.5 hPa | 1.78 mm | - | 390 W/m² | - |
| 1778093114 | 2.22° C | 93% | 1020.5 hPa | 1.78 mm | - | 301 W/m² | - |
| 1778092804 | 2.22° C | 94% | 1020.5 hPa | 1.52 mm | - | 241 W/m² | - |
| 1778092516 | 1.67° C | 94% | 1020.5 hPa | 1.78 mm | - | 218 W/m² | - |
| 1778092204 | 1.67° C | 94% | 1020.6 hPa | 1.52 mm | - | 169 W/m² | - |
| 1778091904 | 1.67° C | 94% | 1020.5 hPa | 1.52 mm | - | 149 W/m² | - |
| 1778091604 | 1.11° C | 94% | 1020.5 hPa | 1.52 mm | - | 113 W/m² | - |
| 1778091315 | 1.11° C | 94% | 1020.6 hPa | 1.27 mm | - | 69 W/m² | - |
| 1778091004 | 1.11° C | 94% | 1020.5 hPa | 1.52 mm | - | 88 W/m² | - |
| 1778090717 | 1.11° C | 94% | 1020.5 hPa | 1.27 mm | - | 76 W/m² | - |
| 1778090404 | 1.67° C | 94% | 1020.5 hPa | 1.52 mm | - | 77 W/m² | - |
| 1778090104 | 1.67° C | 94% | 1020.4 hPa | 1.27 mm | - | 65 W/m² | - |
| 1778089815 | 1.67° C | 95% | 1020.3 hPa | 1.27 mm | - | 76 W/m² | - |
| 1778089504 | 1.67° C | 95% | 1020.4 hPa | 1.27 mm | - | 79 W/m² | - |
| 1778089215 | 1.67° C | 95% | 1020.4 hPa | 1.52 mm | - | 83 W/m² | - |
| 1778088904 | 1.67° C | 94% | 1020.4 hPa | 1.27 mm | - | 72 W/m² | - |
| 1778088615 | 1.67° C | 95% | 1020.3 hPa | 1.27 mm | - | 62 W/m² | - |
| 1778088304 | 1.67° C | 95% | 1020.4 hPa | 1.27 mm | - | 70 W/m² | - |
* Rain latest hour (hover to see other rain measurements)
** Current wind speed in m/s (hover to see current wind gust speed)